Location: ?????
(55.6500°N, 37.2500°E)
Time: 06:48:01
(UTC+00:00)

SL-24 R/B - Pass Details

Date: 19 May 2025
Orbit: 624 x 1072 km, 98.1° (Epoch: 24 June)

Event Time Altitude Azimuth Distance (km) Brightness Sun altitude
Rises 19:19:49 0° 17° (NNE) 2,931 8.2 -9.7°
Reaches altitude 10° 19:22:02 10° 20° (NNE) 2,011 7.3 -9.9°
Maximum altitude 19:26:20 66° 103° (ESE) 692 4.1 -10.1°
Drops below altitude 10° 19:30:44 10° 186° (S) 2,061 6.2 -10.4°
Enters shadow 19:30:57 - 187° (S) 2,153 6.3 -10.5°
